Flag for Panama Weather past 2 weeks in Panama, Panama

Now
84 °F

Scattered clouds.


Feels Like: 94 °F
Forecast: N/A
Wind: 8 mph from Northwest

Location: Marcos A. Gelabert

Current Time: Sep 4, 2015 at 6:46:24 PM

Latest Report: Sep 4, 2015 at 6:00 PM


Visibility: N/A

Pressure: 29.80 "Hg

Humidity: 79%

Dew point: 77 °F

Location of PanamaLocation

Historic Weather in Panama — Graph

°F

Panama temperature yesterday

Maximum temperature yesterday: 88 °F (at 2:00 PM)
Minimum temperature yesterday: 77 °F (at 10:00 AM)
Average temperature yesterday: 81 °F

Past Weeks' High & Low Weather Summary

 TemperatureHumidityPressure
High91 °F (Aug 30, 1:00 PM)100% (Aug 23, 9:00 PM)29.95 "Hg (Aug 23, 9:00 PM)
Low75 °F (Aug 25, 12:00 PM)62% (Aug 28, 1:00 PM)29.74 "Hg (Aug 20, 5:00 PM)
Average82 °F84%29.83 "Hg
* Reported Aug 20 5:00 PM — Sep 4 5:00 PM, Panama, Weather by CustomWeather, © 2015

Note: Actual official high and low records may vary slightly from our data, if they occured in-between our weather recording intervals... More about our weather records

Advertising

Panama weather history for previous 24 hours

 ConditionsComfort  
Time TempWeatherWind HumidityBarometerVisibility
5:00 PM
Fri, Sep 4
84 °FScattered clouds.8 mph79%29.80 "HgN/A
4:00 PM86 °FScattered clouds.8 mph75%29.80 "HgN/A
3:00 PM86 °FScattered clouds.14 mph75%29.80 "HgN/A
2:00 PM88 °FThunderstorms. Scattered clouds.14 mph70%29.83 "HgN/A
1:00 PM88 °FScattered clouds.14 mph70%29.83 "HgN/A
12:00 PM88 °FScattered clouds.8 mph70%29.83 "HgN/A
11:00 AM88 °FScattered clouds.7 mph70%29.86 "Hg6 mi
10:00 AM86 °FScattered clouds.7 mph75%29.89 "Hg6 mi
9:00 AM82 °FScattered clouds.5 mph84%29.89 "Hg6 mi
8:00 AM79 °FScattered clouds.2 mph94%29.86 "Hg6 mi
7:00 AM79 °FScattered clouds.2 mph94%29.86 "Hg6 mi
6:00 AM79 °FPassing clouds.No wind94%29.83 "HgN/A
10:00 PM
Thu, Sep 3
79 °FPassing clouds.6 mph89%29.89 "HgN/A
9:00 PM79 °FPassing clouds.9 mph89%29.86 "HgN/A
8:00 PM79 °FPassing clouds.7 mph89%29.86 "HgN/A
7:00 PM81 °FPassing clouds.12 mph84%29.83 "HgN/A
6:00 PM82 °FScattered clouds.12 mph84%29.83 "HgN/A
Weather by CustomWeather, © 2015

See weather overviewHow to use our weather pages